Moncks Corner, SC

10:18 PM EST on February 27, 2017 (GMT -0500)
Moncks Corner

Weather History for KMKS - May, 2012

Change the Weather History Date:

Tuesday, May 22, 2012

  Actual Average (KCHS) Record (KCHS)
Temperature  
Mean Temperature 76 °F -  
Max Temperature 87 °F 83 °F 98 °F (1938)
Min Temperature 64 °F 64 °F 48 °F (1954)
Cooling Degree Days 10    
Growing Degree Days 26 (Base 50)    
Moisture  
Dew Point 65 °F    
Average Humidity 75    
Maximum Humidity 100    
Minimum Humidity 43    
Precipitation  
Precipitation 0.07 in - - ()
Sea Level Pressure  
Sea Level Pressure 29.87 in    
Wind  
Wind Speed 3 mph (SW)    
Max Wind Speed 14 mph    
Max Gust Speed 22 mph    
Visibility 8 miles    
Events Rain , Thunderstorm    
Averages and records for this station are not official NWS values.
T = Trace of Precipitation, MM = Missing Value Source: NWS Daily Summary

Daily Weather History Graph

Daily Weather History Graph

Search for Another Location

Airport or City:

Trip Planner

Search our weather history database for the weather conditions in past years. The results will help you decide how hot, cold, wet, or windy it might be!

Date:

Astronomy

May. 22, 2012 Rise Set
Actual Time 6:15 AM EDT 8:18 PM EDT
Civil Twilight 5:48 AM EDT 8:46 PM EDT
Nautical Twilight 5:14 AM EDT 9:20 PM EDT
Astronomical Twilight 4:38 AM EDT 9:56 PM EDT
Moon 7:26 AM EDT (5/22) 9:54 PM EDT (5/22)
Length of Visible Light 14h 58m
Length of Day
14h 02m
Waxing Crescent, 3% of the Moon is Illuminated
May 22
Waxing Crescent
May 28
First Quarter
Jun 4
Full
Jun 11
Last Quarter
Jun 19
New

Hourly Weather History & Observations

Time (EDT) Temp. Heat Index Dew Point Humidity Pressure Visibility Wind Dir Wind Speed Gust Speed Precip Events Conditions
12:35 AM 66.2 °F - 64.4 °F 94% 29.92 in 7.0 mi Calm Calm - N/A   Clear
12:55 AM 66.2 °F - 64.4 °F 94% 29.92 in 7.0 mi Calm Calm - N/A   Clear
1:15 AM 66.2 °F - 64.4 °F 94% 29.92 in 7.0 mi Calm Calm - N/A   Clear
1:35 AM 66.2 °F - 64.4 °F 94% 29.91 in 7.0 mi Calm Calm - N/A   Clear
1:55 AM 66.2 °F - 64.4 °F 94% 29.91 in 7.0 mi Calm Calm - N/A   Clear
2:15 AM 66.2 °F - 64.4 °F 94% 29.90 in 7.0 mi Calm Calm - N/A   Clear
2:35 AM 66.2 °F - 66.2 °F 100% 29.89 in 7.0 mi Calm Calm - N/A   Clear
2:55 AM 66.2 °F - 66.2 °F 100% 29.89 in 7.0 mi Calm Calm - N/A   Clear
3:15 AM 66.2 °F - 64.4 °F 94% 29.88 in 5.0 mi Calm Calm - N/A   Clear
3:35 AM 66.2 °F - 64.4 °F 94% 29.88 in 4.0 mi Calm Calm - N/A   Clear
3:55 AM 66.2 °F - 64.4 °F 94% 29.88 in 5.0 mi Calm Calm - N/A   Clear
4:15 AM 64.4 °F - 64.4 °F 100% 29.88 in 7.0 mi SSW 3.5 mph - N/A   Clear
4:35 AM 66.2 °F - 64.4 °F 94% 29.88 in 2.5 mi Calm Calm - N/A   Clear
4:55 AM 66.2 °F - 64.4 °F 94% 29.87 in 5.0 mi SW 3.5 mph - N/A   Clear
5:15 AM 66.2 °F - 64.4 °F 94% 29.87 in 7.0 mi Calm Calm - N/A   Clear
5:35 AM 66.2 °F - 64.4 °F 94% 29.87 in 3.0 mi Calm Calm - N/A   Clear
5:55 AM 64.4 °F - 64.4 °F 100% 29.87 in 7.0 mi Calm Calm - N/A   Clear
6:15 AM 64.4 °F - 64.4 °F 100% 29.87 in 7.0 mi Calm Calm - N/A   Clear
6:55 AM 66.2 °F - 64.4 °F 94% 29.88 in 2.5 mi Calm Calm - N/A   Scattered Clouds
7:15 AM 66.2 °F - 66.2 °F 100% 29.89 in 3.0 mi Calm Calm - N/A   Mist
7:35 AM 68.0 °F - 66.2 °F 94% 29.89 in 5.0 mi Calm Calm - N/A   Mist
7:55 AM 69.8 °F - 68.0 °F 94% 29.89 in 5.0 mi SSW 4.6 mph - N/A   Mist
8:15 AM 71.6 °F - 68.0 °F 88% 29.89 in 10.0 mi SSW 6.9 mph - N/A   Unknown
8:35 AM 73.4 °F - 68.0 °F 83% 29.89 in 10.0 mi SW 5.8 mph - N/A   Clear
8:55 AM 75.2 °F - 68.0 °F 78% 29.89 in 7.0 mi SW 8.1 mph - N/A   Clear
9:15 AM 77.0 °F - 68.0 °F 74% 29.90 in 10.0 mi SSW 9.2 mph - N/A   Clear
9:35 AM 78.8 °F - 66.2 °F 65% 29.90 in 10.0 mi SW 8.1 mph - N/A   Clear
9:55 AM 78.8 °F - 66.2 °F 65% 29.90 in 10.0 mi SW 6.9 mph - N/A   Clear
10:15 AM 80.6 °F 82.7 °F 66.2 °F 61% 29.90 in 10.0 mi SW 6.9 mph - N/A   Clear
10:35 AM 80.6 °F 82.7 °F 66.2 °F 61% 29.90 in 10.0 mi SW 6.9 mph - N/A   Clear
10:55 AM 82.4 °F 83.9 °F 64.4 °F 54% 29.90 in 10.0 mi SW 9.2 mph - N/A   Clear
11:15 AM 82.4 °F 83.9 °F 64.4 °F 54% 29.90 in 7.0 mi SSW 6.9 mph - N/A   Clear
11:35 AM 80.6 °F 82.7 °F 66.2 °F 61% 29.90 in 10.0 mi South 4.6 mph - N/A   Clear
11:55 AM 78.8 °F - 66.2 °F 65% 29.90 in 10.0 mi South 4.6 mph - N/A   Clear
12:15 PM 80.6 °F 82.7 °F 66.2 °F 61% 29.90 in 10.0 mi SSW 5.8 mph - N/A   Clear
12:35 PM 80.6 °F 82.7 °F 66.2 °F 61% 29.89 in 10.0 mi SSW 5.8 mph - N/A   Clear
12:55 PM 82.4 °F 85.4 °F 68.0 °F 62% 29.88 in 7.0 mi South 4.6 mph - N/A   Clear
1:15 PM 84.2 °F 86.6 °F 66.2 °F 55% 29.87 in 7.0 mi SSW 10.4 mph - N/A Thunderstorm Clear
1:35 PM 86.0 °F 88.2 °F 66.2 °F 51% 29.86 in 7.0 mi SW 8.1 mph - N/A   Clear
1:55 PM 87.8 °F 89.4 °F 64.4 °F 46% 29.85 in 10.0 mi WSW 8.1 mph - N/A   Clear
2:15 PM 87.8 °F 90.4 °F 66.2 °F 49% 29.85 in 7.0 mi West 9.2 mph - N/A   Clear
2:35 PM 86.0 °F 88.2 °F 66.2 °F 51% 29.83 in 10.0 mi SW 8.1 mph - N/A   Clear
2:55 PM 86.0 °F 88.2 °F 66.2 °F 51% 29.83 in 10.0 mi SW 4.6 mph - N/A   Clear
3:15 PM 87.8 °F 88.5 °F 62.6 °F 43% 29.82 in 10.0 mi WSW 9.2 mph - N/A Thunderstorm Clear
3:35 PM 87.8 °F 88.5 °F 62.6 °F 43% 29.82 in 10.0 mi WSW 13.8 mph 17.3 mph N/A   Clear
4:15 PM 87.8 °F 88.5 °F 62.6 °F 43% 29.80 in 10.0 mi SW 8.1 mph 16.1 mph N/A   Clear
4:35 PM 87.8 °F 88.5 °F 62.6 °F 43% 29.80 in 7.0 mi West 6.9 mph - N/A   Scattered Clouds
4:55 PM 86.0 °F 86.1 °F 60.8 °F 43% 29.80 in 7.0 mi West 9.2 mph - N/A   Scattered Clouds
5:15 PM 84.2 °F 84.4 °F 60.8 °F 45% 29.80 in 10.0 mi West 5.8 mph - N/A   Scattered Clouds
5:35 PM 84.2 °F 85.0 °F 62.6 °F 48% 29.80 in 10.0 mi WSW 4.6 mph - N/A Thunderstorm Clear
5:55 PM 84.2 °F 85.6 °F 64.4 °F 51% 29.80 in 7.0 mi SW 5.8 mph - N/A Thunderstorm Clear
6:15 PM 86.0 °F 86.6 °F 62.6 °F 45% 29.80 in 10.0 mi SSW 8.1 mph - N/A Thunderstorm Clear
6:35 PM 84.2 °F 85.6 °F 64.4 °F 51% 29.80 in 5.0 mi SSW 8.1 mph - N/A Thunderstorm Haze
6:55 PM 82.4 °F 83.9 °F 64.4 °F 54% 29.80 in 10.0 mi South 6.9 mph - N/A Thunderstorm Scattered Clouds
7:15 PM 80.6 °F 82.3 °F 64.4 °F 58% 29.81 in 7.0 mi South 4.6 mph - N/A Thunderstorm Thunderstorm
7:35 PM 77.0 °F - 60.8 °F 57% 29.85 in 10.0 mi NE 13.8 mph 21.9 mph N/A Thunderstorm Mostly Cloudy
7:55 PM 71.6 °F - 60.8 °F 69% 29.88 in 7.0 mi North 12.7 mph 17.3 mph N/A Thunderstorm Thunderstorm
8:15 PM 64.4 °F - 60.8 °F 88% 29.87 in - North 6.9 mph - 0.06 in Rain , Thunderstorm Heavy Thunderstorms and Rain
8:35 PM 64.4 °F - 62.6 °F 94% 29.87 in 10.0 mi NE 4.6 mph 10.4 mph 0.06 in Rain , Thunderstorm Light Thunderstorms and Rain
8:55 PM 66.2 °F - 62.6 °F 88% 29.87 in 10.0 mi Calm Calm - 0.06 in Rain , Thunderstorm Light Thunderstorms and Rain
9:15 PM 66.2 °F - 62.6 °F 88% 29.86 in 10.0 mi Calm Calm - N/A Thunderstorm Mostly Cloudy
9:35 PM 66.2 °F - 64.4 °F 94% 29.85 in 10.0 mi Calm Calm - 0.01 in Rain , Thunderstorm Light Thunderstorms and Rain
9:55 PM 66.2 °F - 64.4 °F 94% 29.85 in 7.0 mi Calm Calm - 0.01 in Thunderstorm Mostly Cloudy
10:15 PM 66.2 °F - 64.4 °F 94% 29.85 in 7.0 mi Calm Calm - N/A   Scattered Clouds
10:35 PM 64.4 °F - 62.6 °F 94% 29.86 in 7.0 mi SSW 5.8 mph - N/A   Clear
10:55 PM 66.2 °F - 62.6 °F 88% 29.86 in 10.0 mi South 5.8 mph - N/A   Clear
11:15 PM 66.2 °F - 62.6 °F 88% 29.87 in 10.0 mi SSW 5.8 mph - N/A   Clear
11:35 PM 66.2 °F - 62.6 °F 88% 29.87 in 7.0 mi SSW 4.6 mph - N/A   Clear
11:55 PM 66.2 °F - 62.6 °F 88% 29.87 in 7.0 mi SSW 3.5 mph - N/A   Clear